SCF315 ZSHC-ZUCK

Flight info

Callsign SCF315
Flight time N/A
Altitude 38100
Route NIVIK8D NIVIK W135 DOGVI W545 VEMEX W73 MADUK W51 LEGIV W164 ADGOL W50 XSH W80 IRPOG IRPOG1J
Aircraft B789/H-SDE1E2E3FGHIJ2J3J4J5M1RWXY/LB1D1

Departure

Time N/A
Airport Hangzhou Xiaoshan International Airport (ZSHC)

Arrival

Time 2026-04-27 05:37
Airport Chongqing Jiangbei International Airport (ZUCK)
Time Latitude Longitude Altitude Speed Heading
2026-04-27 03:34 30.48029 119.97666 10185 ft 283 kts 330°
2026-04-27 03:34 30.49862 119.96504 10790 ft 309 kts 330°
2026-04-27 03:35 30.51803 119.95273 11279 ft 334 kts 330°
2026-04-27 03:35 30.53862 119.93969 12374 ft 337 kts 329°
2026-04-27 03:35 30.55930 119.92659 13411 ft 344 kts 329°
2026-04-27 03:35 30.58049 119.91313 14380 ft 350 kts 328°
2026-04-27 03:36 30.60204 119.89944 15311 ft 355 kts 328°
2026-04-27 03:36 30.61285 119.89259 15751 ft 358 kts 328°
2026-04-27 03:36 30.62739 119.88540 16252 ft 367 kts 340°
2026-04-27 03:36 30.63789 119.88265 16613 ft 372 kts 347°
2026-04-27 03:37 30.65302 119.88103 17131 ft 381 kts 356°
2026-04-27 03:37 30.67929 119.88568 17959 ft 394 kts
2026-04-27 03:37 30.70630 119.89364 18674 ft 401 kts 11°
2026-04-27 03:37 30.73351 119.89940 19440 ft 396 kts 356°
2026-04-27 03:38 30.76078 119.89693 20195 ft 391 kts 342°
2026-04-27 03:38 30.78623 119.88690 20951 ft 385 kts 328°
2026-04-27 03:38 30.80870 119.87040 21700 ft 382 kts 319°
2026-04-27 03:38 30.83005 119.85233 22434 ft 384 kts 319°
2026-04-27 03:39 30.85187 119.83353 23173 ft 387 kts 318°
2026-04-27 03:39 30.87356 119.81475 23839 ft 390 kts 318°
2026-04-27 03:39 30.89511 119.79622 24421 ft 392 kts 318°
2026-04-27 03:39 30.91712 119.77736 25009 ft 394 kts 318°
2026-04-27 03:40 30.93920 119.75835 25582 ft 396 kts 318°
2026-04-27 03:40 30.96175 119.73890 26145 ft 398 kts 318°
2026-04-27 03:40 30.98379 119.71990 26685 ft 401 kts 318°
2026-04-27 03:40 31.00535 119.70132 27203 ft 403 kts 317°
2026-04-27 03:41 31.02589 119.68360 27677 ft 405 kts 317°
2026-04-27 03:41 31.04950 119.66322 28238 ft 407 kts 317°
2026-04-27 03:41 31.05404 119.65930 28331 ft 407 kts 317°
2026-04-27 03:42 31.06897 119.64639 28650 ft 409 kts 317°
2026-04-27 03:42 31.08498 119.63255 29018 ft 411 kts 317°
2026-04-27 03:42 31.08686 119.63093 29065 ft 411 kts 317°
2026-04-27 03:43 31.10390 119.61619 29435 ft 413 kts 317°
2026-04-27 03:43 31.12705 119.59616 29894 ft 415 kts 317°
2026-04-27 03:44 31.15025 119.57608 30284 ft 417 kts 317°
2026-04-27 03:44 31.17357 119.55589 30712 ft 418 kts 317°
2026-04-27 03:44 31.19702 119.53557 31100 ft 420 kts 317°
2026-04-27 03:44 31.22062 119.51509 31415 ft 423 kts 318°
2026-04-27 03:45 31.24415 119.49467 31798 ft 424 kts 318°
2026-04-27 03:45 31.26795 119.47400 32155 ft 425 kts 318°
2026-04-27 03:45 31.29157 119.45348 32529 ft 426 kts 318°
2026-04-27 03:45 31.31541 119.43274 32849 ft 427 kts 318°
2026-04-27 03:46 31.33927 119.41198 33182 ft 428 kts 318°
2026-04-27 03:46 31.34732 119.40497 33290 ft 429 kts 318°
2026-04-27 03:46 31.36653 119.38825 33546 ft 430 kts 318°
2026-04-27 03:46 31.39053 119.36733 33913 ft 431 kts 319°
2026-04-27 03:47 31.41457 119.34637 34036 ft 435 kts 319°
2026-04-27 03:47 31.46075 119.30609 34027 ft 430 kts 319°
2026-04-27 03:48 31.50877 119.26410 34024 ft 430 kts 318°
2026-04-27 03:48 31.55668 119.22220 34029 ft 430 kts 318°
2026-04-27 03:49 31.60390 119.18041 34025 ft 431 kts 317°
2026-04-27 03:49 31.64814 119.14073 34031 ft 429 kts 314°
2026-04-27 03:50 31.69355 119.09366 34036 ft 429 kts 315°
2026-04-27 03:50 31.73857 119.04810 34046 ft 424 kts 314°
2026-04-27 03:51 31.78108 119.00414 34044 ft 424 kts 312°
2026-04-27 03:51 31.81696 118.95017 34048 ft 416 kts 296°
2026-04-27 03:52 31.83756 118.88713 34047 ft 413 kts 282°
2026-04-27 03:52 31.84202 118.82572 34054 ft 415 kts 269°
2026-04-27 03:53 31.83633 118.75703 34049 ft 417 kts 267°
2026-04-27 03:53 31.83030 118.68905 34050 ft 419 kts 266°
2026-04-27 03:54 31.82411 118.62034 34047 ft 421 kts 266°
2026-04-27 03:54 31.81795 118.55182 34032 ft 424 kts 266°
2026-04-27 03:55 31.81167 118.48276 34028 ft 427 kts 266°
2026-04-27 03:55 31.80535 118.41351 34027 ft 427 kts 266°
2026-04-27 03:56 31.79898 118.34403 34027 ft 428 kts 265°
2026-04-27 03:56 31.78491 118.27605 34044 ft 432 kts 250°
2026-04-27 03:57 31.76012 118.21185 34037 ft 432 kts 248°
2026-04-27 03:57 31.73498 118.14756 34039 ft 433 kts 248°
2026-04-27 03:58 31.71346 118.08197 34048 ft 429 kts 258°
2026-04-27 03:58 31.69946 118.01392 34031 ft 428 kts 258°
2026-04-27 03:59 31.68550 117.94612 34030 ft 428 kts 258°
2026-04-27 03:59 31.67145 117.87808 34023 ft 428 kts 258°
2026-04-27 04:00 31.65821 117.81423 34047 ft 428 kts 258°
2026-04-27 04:00 31.64486 117.74993 34050 ft 427 kts 258°
2026-04-27 04:01 31.63119 117.68433 34048 ft 427 kts 258°
2026-04-27 04:01 31.61734 117.61800 34051 ft 426 kts 258°
2026-04-27 04:02 31.60414 117.55105 34050 ft 425 kts 260°
2026-04-27 04:02 31.59208 117.48340 34023 ft 427 kts 260°
2026-04-27 04:03 31.58011 117.41608 34047 ft 432 kts 260°
2026-04-27 04:03 31.56750 117.34550 34047 ft 431 kts 260°
2026-04-27 04:04 31.55581 117.28030 34044 ft 431 kts 260°
2026-04-27 04:04 31.54434 117.21506 34049 ft 430 kts 260°
2026-04-27 04:05 31.53215 117.14627 34048 ft 432 kts 260°
2026-04-27 04:05 31.51990 117.07732 34047 ft 435 kts 260°
2026-04-27 04:06 31.50748 117.00763 34047 ft 435 kts 260°
2026-04-27 04:06 31.49516 116.93875 34049 ft 434 kts 260°
2026-04-27 04:07 31.46996 116.83869 34058 ft 443 kts 246°
2026-04-27 04:07 31.43523 116.77904 34061 ft 448 kts 237°
2026-04-27 04:08 31.39724 116.72079 34062 ft 449 kts 237°
2026-04-27 04:08 31.35924 116.66282 34069 ft 449 kts 237°
2026-04-27 04:09 31.32131 116.60494 34065 ft 448 kts 237°
2026-04-27 04:09 31.28327 116.54700 34064 ft 451 kts 237°
2026-04-27 04:10 31.24511 116.48892 34065 ft 450 kts 237°
2026-04-27 04:10 31.20689 116.43085 34068 ft 451 kts 237°
2026-04-27 04:11 31.16896 116.37331 34074 ft 451 kts 237°
2026-04-27 04:11 31.13101 116.31581 34080 ft 450 kts 237°
2026-04-27 04:12 31.09389 116.25965 34074 ft 450 kts 237°
2026-04-27 04:12 31.05540 116.20152 34086 ft 450 kts 237°
2026-04-27 04:13 31.01713 116.14373 34078 ft 449 kts 237°
2026-04-27 04:13 30.98014 116.08801 34075 ft 449 kts 237°
2026-04-27 04:14 30.94319 116.03240 34082 ft 450 kts 237°
2026-04-27 04:14 30.90570 115.97601 34061 ft 455 kts 237°
2026-04-27 04:15 30.87137 115.92456 34068 ft 454 kts 236°
2026-04-27 04:15 30.83288 115.86667 34086 ft 452 kts 237°
2026-04-27 04:16 30.79472 115.80860 34067 ft 452 kts 237°
2026-04-27 04:16 30.75650 115.75073 34061 ft 452 kts 237°
2026-04-27 04:17 30.71845 115.69311 34075 ft 456 kts 237°
2026-04-27 04:17 30.68410 115.64117 34071 ft 459 kts 237°
2026-04-27 04:18 30.64531 115.58265 34057 ft 457 kts 237°
2026-04-27 04:18 30.60648 115.52410 34054 ft 458 kts 237°
2026-04-27 04:19 30.57411 115.47541 34049 ft 458 kts 237°
2026-04-27 04:19 30.53520 115.41690 34029 ft 457 kts 237°
2026-04-27 04:20 30.48976 115.34871 34041 ft 458 kts 237°
2026-04-27 04:20 30.46183 115.29726 34055 ft 449 kts 249°
2026-04-27 04:21 30.44497 115.22838 34054 ft 444 kts 265°
2026-04-27 04:21 30.44647 115.15817 34049 ft 442 kts 277°
2026-04-27 04:22 30.45370 115.08689 34046 ft 443 kts 277°
2026-04-27 04:22 30.46112 115.01605 34048 ft 442 kts 277°
2026-04-27 04:23 30.46832 114.94547 34045 ft 441 kts 278°
2026-04-27 04:23 30.47555 114.87501 34042 ft 440 kts 278°
2026-04-27 04:24 30.48274 114.80419 34039 ft 442 kts 278°
2026-04-27 04:24 30.48906 114.74172 34037 ft 443 kts 278°
2026-04-27 04:25 30.49620 114.67071 34037 ft 444 kts 278°
2026-04-27 04:25 30.50333 114.59946 34033 ft 443 kts 277°
2026-04-27 04:26 30.51033 114.52912 34034 ft 441 kts 277°
2026-04-27 04:26 30.51733 114.45845 34034 ft 442 kts 277°
2026-04-27 04:27 30.52411 114.38952 34032 ft 442 kts 277°
2026-04-27 04:27 30.53094 114.31970 34038 ft 443 kts 278°
2026-04-27 04:28 30.53786 114.24867 34039 ft 443 kts 278°
2026-04-27 04:28 30.54472 114.17763 34040 ft 442 kts 278°
2026-04-27 04:29 30.55131 114.10701 34020 ft 441 kts 277°
2026-04-27 04:29 30.55828 114.03610 34034 ft 450 kts 277°
2026-04-27 04:30 30.56507 113.96411 34032 ft 448 kts 276°
2026-04-27 04:30 30.57169 113.89231 34029 ft 448 kts 276°
2026-04-27 04:31 30.57679 113.82159 34050 ft 447 kts 269°
2026-04-27 04:31 30.57419 113.74880 34044 ft 449 kts 269°
2026-04-27 04:32 30.57147 113.67594 34041 ft 448 kts 268°
2026-04-27 04:32 30.56877 113.60402 34042 ft 446 kts 268°
2026-04-27 04:33 30.56602 113.53194 34043 ft 447 kts 268°
2026-04-27 04:33 30.56323 113.45983 34041 ft 448 kts 268°
2026-04-27 04:34 30.56039 113.38742 34053 ft 451 kts 268°
2026-04-27 04:34 30.55749 113.31477 34053 ft 450 kts 268°
2026-04-27 04:35 30.55457 113.24234 34049 ft 449 kts 268°
2026-04-27 04:35 30.55161 113.17009 34052 ft 448 kts 268°
2026-04-27 04:36 30.54865 113.09843 34046 ft 448 kts 268°
2026-04-27 04:36 30.54562 113.02568 34049 ft 449 kts 268°
2026-04-27 04:37 30.54256 112.95338 34049 ft 449 kts 268°
2026-04-27 04:37 30.53946 112.88103 34048 ft 449 kts 268°
2026-04-27 04:38 30.53635 112.80926 34036 ft 449 kts 268°
2026-04-27 04:38 30.53316 112.73667 34047 ft 451 kts 268°
2026-04-27 04:39 30.52994 112.66412 34047 ft 450 kts 268°
2026-04-27 04:39 30.52668 112.59174 34049 ft 449 kts 268°
2026-04-27 04:40 30.52341 112.52000 34051 ft 449 kts 268°
2026-04-27 04:40 30.52008 112.44792 34052 ft 450 kts 268°
2026-04-27 04:41 30.51672 112.37587 34053 ft 446 kts 268°
2026-04-27 04:41 30.51334 112.30403 34053 ft 447 kts 268°
2026-04-27 04:42 30.50989 112.23207 34049 ft 447 kts 268°
2026-04-27 04:42 30.50641 112.15999 34061 ft 448 kts 268°
2026-04-27 04:43 30.50289 112.08797 34061 ft 447 kts 268°
2026-04-27 04:43 30.49933 112.01601 34056 ft 446 kts 268°
2026-04-27 04:44 30.49574 111.94421 34057 ft 447 kts 268°
2026-04-27 04:44 30.49211 111.87231 34060 ft 447 kts 268°
2026-04-27 04:45 30.48845 111.80081 34056 ft 447 kts 268°
2026-04-27 04:45 30.48473 111.72881 34058 ft 442 kts 268°
2026-04-27 04:46 30.48099 111.65760 34049 ft 443 kts 268°
2026-04-27 04:46 30.47715 111.58645 34059 ft 447 kts 268°
2026-04-27 04:47 30.47327 111.51458 34058 ft 446 kts 268°
2026-04-27 04:47 30.46581 111.44325 34061 ft 447 kts 263°
2026-04-27 04:48 30.45626 111.37202 34069 ft 447 kts 263°
2026-04-27 04:48 30.44634 111.30079 34067 ft 447 kts 263°
2026-04-27 04:49 30.43651 111.22974 34070 ft 446 kts 263°
2026-04-27 04:49 30.42658 111.15866 34072 ft 447 kts 263°
2026-04-27 04:50 30.41664 111.08770 34075 ft 445 kts 263°
2026-04-27 04:50 30.40669 111.01696 34068 ft 445 kts 263°
2026-04-27 04:51 30.39668 110.94605 34087 ft 446 kts 262°
2026-04-27 04:51 30.38663 110.87517 34074 ft 446 kts 262°
2026-04-27 04:52 30.37661 110.80479 34073 ft 446 kts 262°
2026-04-27 04:52 30.36648 110.73394 34079 ft 448 kts 262°
2026-04-27 04:53 30.35624 110.66259 34083 ft 449 kts 262°
2026-04-27 04:53 30.34597 110.59130 34059 ft 449 kts 262°
2026-04-27 04:54 30.33567 110.52010 34075 ft 450 kts 262°
2026-04-27 04:54 30.32530 110.44867 34073 ft 449 kts 262°
2026-04-27 04:55 30.31491 110.37738 34077 ft 449 kts 262°
2026-04-27 04:55 30.30448 110.30617 34075 ft 449 kts 262°
2026-04-27 04:56 30.29400 110.23486 34071 ft 450 kts 262°
2026-04-27 04:56 30.28348 110.16357 34075 ft 449 kts 262°
2026-04-27 04:57 30.27292 110.09218 34070 ft 450 kts 262°
2026-04-27 04:57 30.26235 110.02110 34057 ft 450 kts 262°
2026-04-27 04:58 30.25184 109.95071 34053 ft 450 kts 262°
2026-04-27 04:58 30.24165 109.88266 34041 ft 449 kts 262°
2026-04-27 04:59 30.23097 109.81162 34059 ft 450 kts 261°
2026-04-27 04:59 30.22021 109.74048 34053 ft 449 kts 261°
2026-04-27 05:00 30.20941 109.66928 34045 ft 449 kts 261°
2026-04-27 05:00 30.19794 109.59851 34061 ft 450 kts 255°
2026-04-27 05:01 30.17964 109.52902 34060 ft 451 kts 255°
2026-04-27 05:01 30.16132 109.45984 34059 ft 451 kts 255°
2026-04-27 05:02 30.14291 109.39061 34053 ft 450 kts 255°
2026-04-27 05:03 30.11530 109.28697 34046 ft 451 kts 255°
2026-04-27 05:03 30.09680 109.21769 34048 ft 451 kts 255°
2026-04-27 05:04 30.07820 109.14852 34024 ft 451 kts 254°
2026-04-27 05:04 30.05955 109.07936 34041 ft 454 kts 254°
2026-04-27 05:05 30.04084 109.01006 34041 ft 455 kts 254°
2026-04-27 05:05 30.02206 108.94044 34037 ft 454 kts 255°
2026-04-27 05:06 30.00379 108.87015 34033 ft 454 kts 255°
2026-04-27 05:06 29.98546 108.80096 34028 ft 454 kts 255°
2026-04-27 05:07 29.96714 108.73146 34022 ft 455 kts 255°
2026-04-27 05:07 29.94867 108.66172 34034 ft 455 kts 255°
2026-04-27 05:08 29.93021 108.59202 34026 ft 454 kts 255°
2026-04-27 05:08 29.91169 108.52234 34034 ft 455 kts 255°
2026-04-27 05:09 29.89312 108.45264 34026 ft 454 kts 255°
2026-04-27 05:09 29.87768 108.39475 34021 ft 455 kts 255°
2026-04-27 05:10 29.85910 108.32528 34022 ft 454 kts 255°
2026-04-27 05:10 29.84047 108.25575 34027 ft 455 kts 255°
2026-04-27 05:11 29.82175 108.18608 34016 ft 454 kts 255°
2026-04-27 05:11 29.80305 108.11662 34012 ft 452 kts 255°
2026-04-27 05:11 29.79389 108.08274 34005 ft 434 kts 255°
2026-04-27 05:12 29.78511 108.05027 34007 ft 416 kts 255°
2026-04-27 05:12 29.77401 108.00918 33997 ft 396 kts 255°
2026-04-27 05:12 29.76862 107.98925 33997 ft 389 kts 255°
2026-04-27 05:13 29.76191 107.92791 34025 ft 394 kts 275°
2026-04-27 05:13 29.76635 107.89672 34026 ft 398 kts 286°
2026-04-27 05:13 29.77549 107.86673 34014 ft 397 kts 290°
2026-04-27 05:14 29.79527 107.80718 34025 ft 398 kts 290°
2026-04-27 05:14 29.81514 107.74774 33935 ft 396 kts 290°
2026-04-27 05:14 29.82495 107.71818 33445 ft 392 kts 290°
2026-04-27 05:15 29.83467 107.68894 32981 ft 389 kts 290°
2026-04-27 05:15 29.84426 107.66008 32523 ft 385 kts 290°
2026-04-27 05:15 29.85381 107.63131 32121 ft 380 kts 290°
2026-04-27 05:15 29.86308 107.60339 31689 ft 366 kts 289°
2026-04-27 05:16 29.87232 107.57548 31225 ft 383 kts 289°
2026-04-27 05:16 29.88191 107.54649 30684 ft 389 kts 289°
2026-04-27 05:16 29.89115 107.51861 30190 ft 388 kts 289°
2026-04-27 05:16 29.90070 107.48978 29651 ft 385 kts 289°
2026-04-27 05:17 29.90995 107.46176 29183 ft 381 kts 289°
2026-04-27 05:17 29.91935 107.43326 28672 ft 377 kts 289°
2026-04-27 05:17 29.92849 107.40556 28203 ft 373 kts 289°
2026-04-27 05:17 29.93775 107.37747 27720 ft 370 kts 289°
2026-04-27 05:18 29.94671 107.35025 27246 ft 366 kts 289°
2026-04-27 05:18 29.95569 107.32298 26789 ft 363 kts 289°
2026-04-27 05:18 29.96461 107.29584 26312 ft 361 kts 289°
2026-04-27 05:18 29.97349 107.26879 25831 ft 359 kts 288°
2026-04-27 05:19 29.98150 107.24172 25387 ft 354 kts 279°
2026-04-27 05:19 29.98362 107.21523 24962 ft 351 kts 265°
2026-04-27 05:19 29.97942 107.18717 24494 ft 349 kts 251°
2026-04-27 05:19 29.96908 107.16198 24046 ft 348 kts 236°
2026-04-27 05:20 29.95460 107.13975 23566 ft 346 kts 233°
2026-04-27 05:20 29.93992 107.11789 23057 ft 344 kts 232°
2026-04-27 05:20 29.92525 107.09628 22600 ft 340 kts 232°
2026-04-27 05:20 29.91091 107.07507 22153 ft 330 kts 233°
2026-04-27 05:21 29.89711 107.05460 21742 ft 327 kts 233°
2026-04-27 05:21 29.88283 107.03341 21313 ft 340 kts 233°
2026-04-27 05:21 29.86827 107.01188 20856 ft 340 kts 233°
2026-04-27 05:21 29.85371 106.99037 20410 ft 339 kts 233°
2026-04-27 05:22 29.83929 106.96906 19955 ft 337 kts 233°
2026-04-27 05:22 29.82496 106.94788 19516 ft 334 kts 233°
2026-04-27 05:22 29.81073 106.92687 19076 ft 330 kts 233°
2026-04-27 05:22 29.79674 106.90623 18645 ft 325 kts 233°
2026-04-27 05:23 29.78284 106.88573 18219 ft 323 kts 233°
2026-04-27 05:23 29.76910 106.86546 17766 ft 320 kts 233°
2026-04-27 05:23 29.75540 106.84527 17374 ft 317 kts 233°
2026-04-27 05:23 29.74189 106.82538 17033 ft 316 kts 233°
2026-04-27 05:24 29.72850 106.80566 16614 ft 317 kts 233°
2026-04-27 05:24 29.71379 106.78727 16198 ft 316 kts 217°
2026-04-27 05:24 29.69422 106.77562 15785 ft 317 kts 199°
2026-04-27 05:24 29.67377 106.76864 15389 ft 317 kts 199°
2026-04-27 05:25 29.65282 106.76137 14982 ft 315 kts 198°
2026-04-27 05:25 29.63181 106.75413 14531 ft 312 kts 198°
2026-04-27 05:25 29.61104 106.74697 14042 ft 312 kts 198°
2026-04-27 05:25 29.59027 106.73978 13442 ft 313 kts 198°
2026-04-27 05:26 29.56940 106.73252 12807 ft 313 kts 198°
2026-04-27 05:26 29.54858 106.72530 12201 ft 313 kts 198°
2026-04-27 05:26 29.52781 106.71812 11592 ft 312 kts 198°
2026-04-27 05:26 29.50706 106.71094 10997 ft 311 kts 198°
2026-04-27 05:27 29.48636 106.70377 10414 ft 310 kts 198°
2026-04-27 05:27 29.46579 106.69662 9849 ft 309 kts 197°
2026-04-27 05:27 29.44506 106.68948 9234 ft 309 kts 197°
2026-04-27 05:27 29.42436 106.68232 8636 ft 313 kts 198°
2026-04-27 05:28 29.40348 106.67495 8018 ft 313 kts 200°
2026-04-27 05:28 29.38501 106.66268 7424 ft 306 kts 225°
2026-04-27 05:28 29.37862 106.65441 7183 ft 301 kts 235°
2026-04-27 05:28 29.37066 106.63596 6683 ft 297 kts 255°
2026-04-27 05:29 29.36917 106.61251 6086 ft 296 kts 278°
2026-04-27 05:29 29.37584 106.59050 5488 ft 293 kts 301°
2026-04-27 05:29 29.38934 106.57359 4967 ft 287 kts 323°
2026-04-27 05:29 29.40686 106.56429 4923 ft 266 kts 343°
2026-04-27 05:30 29.42444 106.56353 4909 ft 242 kts
2026-04-27 05:30 29.43929 106.56650 4882 ft 191 kts 12°
2026-04-27 05:30 29.45077 106.57047 4883 ft 162 kts 13°
2026-04-27 05:30 29.46111 106.57403 4856 ft 149 kts 13°
2026-04-27 05:31 29.47120 106.57749 4880 ft 152 kts 14°
2026-04-27 05:31 29.48091 106.58084 4875 ft 141 kts 15°
2026-04-27 05:31 29.49026 106.58407 4890 ft 149 kts 13°
2026-04-27 05:31 29.50065 106.58753 4886 ft 151 kts 12°
2026-04-27 05:32 29.51075 106.59100 4897 ft 153 kts 13°
2026-04-27 05:32 29.52087 106.59452 4896 ft 151 kts 14°
2026-04-27 05:32 29.53111 106.59811 4901 ft 153 kts 13°
2026-04-27 05:32 29.54107 106.60152 4813 ft 151 kts 13°
2026-04-27 05:33 29.55099 106.60494 4603 ft 148 kts 14°
2026-04-27 05:33 29.56081 106.60837 4418 ft 150 kts 15°
2026-04-27 05:33 29.57044 106.61173 4223 ft 148 kts 12°
2026-04-27 05:33 29.58049 106.61508 4038 ft 150 kts 13°
2026-04-27 05:34 29.59053 106.61857 3828 ft 151 kts 12°
2026-04-27 05:34 29.60031 106.62196 3649 ft 149 kts 12°
2026-04-27 05:34 29.60984 106.62524 3465 ft 151 kts 13°
2026-04-27 05:34 29.62018 106.62881 3255 ft 147 kts 13°
2026-04-27 05:35 29.62975 106.63211 3062 ft 144 kts 14°
2026-04-27 05:35 29.63932 106.63540 2884 ft 147 kts 15°
2026-04-27 05:35 29.64901 106.63884 2679 ft 140 kts 14°
2026-04-27 05:35 29.65844 106.64210 2490 ft 140 kts 17°
2026-04-27 05:36 29.66792 106.64545 2345 ft 143 kts 14°
2026-04-27 05:36 29.67737 106.64862 2157 ft 141 kts 14°
2026-04-27 05:36 29.68688 106.65193 1879 ft 138 kts 16°
2026-04-27 05:36 29.69604 106.65514 1718 ft 140 kts 17°
2026-04-27 05:37 29.70533 106.65812 1547 ft 137 kts 16°
2026-04-27 05:37 29.71441 106.66147 1354 ft 132 kts 19°
2026-04-27 05:37 29.72239 106.66431 1335 ft 96 kts 16°
2026-04-27 05:37 29.72583 106.66547 1335 ft 25 kts 16°
2026-04-27 05:38 29.72713 106.66590 1336 ft 18 kts 16°
2026-04-27 05:38 29.72826 106.66626 1335 ft 16 kts
2026-04-27 05:38 29.72930 106.66634 1333 ft 14 kts 358°
2026-04-27 05:38 29.73022 106.66626 1333 ft 12 kts 350°
2026-04-27 05:39 29.73075 106.66591 1332 ft 7 kts 316°
2026-04-27 05:39 29.73108 106.66545 1332 ft 7 kts 302°
2026-04-27 05:39 29.73128 106.66497 1332 ft 7 kts 292°
2026-04-27 05:39 29.73145 106.66444 1336 ft 8 kts 287°
2026-04-27 05:40 29.73159 106.66381 1338 ft 9 kts 283°
2026-04-27 05:40 29.73170 106.66310 1335 ft 9 kts 278°
2026-04-27 05:40 29.73185 106.66242 1336 ft 8 kts 299°
2026-04-27 05:40 29.73218 106.66206 1337 ft 4 kts 330°
2026-04-27 05:41 29.73241 106.66196 1338 ft 4 kts 340°
2026-04-27 05:41 29.73249 106.66193 1338 ft 0 kts 340°